Year,Month,Day,Hour,Minute,Value (Times are PST for temperature in C)
2014,04,13,00,00,11.20
2014,04,13,00,01,11.20
2014,04,13,00,02,11.20
2014,04,13,00,03,11.20
2014,04,13,00,04,11.20
2014,04,13,00,05,11.20
2014,04,13,00,06,11.20
2014,04,13,00,07,11.20
2014,04,13,00,08,11.20
2014,04,13,00,09,11.20
2014,04,13,00,10,11.10
2014,04,13,00,11,11.10
2014,04,13,00,12,11.10
2014,04,13,00,13,11.10
2014,04,13,00,14,11.20
2014,04,13,00,15,11.20
2014,04,13,00,16,11.20
2014,04,13,00,17,11.20
2014,04,13,00,18,11.20
2014,04,13,00,19,11.20
2014,04,13,00,20,11.20
2014,04,13,00,21,11.30
2014,04,13,00,22,11.30
2014,04,13,00,23,11.30
2014,04,13,00,24,11.30
2014,04,13,00,25,11.30
2014,04,13,00,26,11.30
2014,04,13,00,27,11.30
2014,04,13,00,28,11.30
2014,04,13,00,29,11.30
2014,04,13,00,30,11.30
2014,04,13,00,31,11.30
2014,04,13,00,32,11.30
2014,04,13,00,33,11.30
2014,04,13,00,34,11.30
2014,04,13,00,35,11.30
2014,04,13,00,36,11.30
2014,04,13,00,37,11.30
2014,04,13,00,38,11.40
2014,04,13,00,39,11.40
2014,04,13,00,40,11.40
2014,04,13,00,41,11.40
2014,04,13,00,42,11.40
2014,04,13,00,43,11.40
2014,04,13,00,44,11.40
2014,04,13,00,45,11.40
2014,04,13,00,46,11.50
2014,04,13,00,47,11.50
2014,04,13,00,48,11.50
2014,04,13,00,49,11.50
2014,04,13,00,50,11.50
2014,04,13,00,51,11.50
2014,04,13,00,52,11.50
2014,04,13,00,53,11.50
2014,04,13,00,54,11.50
2014,04,13,00,55,11.40
2014,04,13,00,56,11.40
2014,04,13,00,57,11.40
2014,04,13,00,58,11.40
2014,04,13,00,59,11.40
2014,04,13,01,00,11.50
2014,04,13,01,01,11.50
2014,04,13,01,02,11.50
2014,04,13,01,03,11.50
2014,04,13,01,04,11.50
2014,04,13,01,05,11.50
2014,04,13,01,06,11.50
2014,04,13,01,07,11.60
2014,04,13,01,08,11.60
2014,04,13,01,09,11.60
2014,04,13,01,10,11.60
2014,04,13,01,11,11.70
2014,04,13,01,12,11.70
2014,04,13,01,13,11.70
2014,04,13,01,14,11.70
2014,04,13,01,15,11.70
2014,04,13,01,16,11.70
2014,04,13,01,17,11.70
2014,04,13,01,18,11.70
2014,04,13,01,19,11.70
2014,04,13,01,20,11.70
2014,04,13,01,21,11.70
2014,04,13,01,22,11.70
2014,04,13,01,23,11.70
2014,04,13,01,24,11.70
2014,04,13,01,25,11.70
2014,04,13,01,26,11.70
2014,04,13,01,27,11.70
2014,04,13,01,28,11.70
2014,04,13,01,29,11.70
2014,04,13,01,30,11.60
2014,04,13,01,31,11.60
2014,04,13,01,32,11.60
2014,04,13,01,33,11.60
2014,04,13,01,34,11.60
2014,04,13,01,35,11.50
2014,04,13,01,36,11.50
2014,04,13,01,37,11.50
2014,04,13,01,38,11.50
2014,04,13,01,39,11.50
2014,04,13,01,40,11.50
2014,04,13,01,41,11.50
2014,04,13,01,42,11.40
2014,04,13,01,43,11.40
2014,04,13,01,44,11.40
2014,04,13,01,45,11.40
2014,04,13,01,46,11.40
2014,04,13,01,47,11.40
2014,04,13,01,48,11.40
2014,04,13,01,49,11.30
2014,04,13,01,50,11.30
2014,04,13,01,51,11.30
2014,04,13,01,52,11.30
2014,04,13,01,53,11.30
2014,04,13,01,54,11.30
2014,04,13,01,55,11.30
2014,04,13,01,56,11.30
2014,04,13,01,57,11.30
2014,04,13,01,58,11.30
2014,04,13,01,59,11.30
2014,04,13,02,00,11.30
2014,04,13,02,01,11.20
2014,04,13,02,02,11.20
2014,04,13,02,03,11.20
2014,04,13,02,04,11.20
2014,04,13,02,05,11.20
2014,04,13,02,06,11.20
2014,04,13,02,07,11.20
2014,04,13,02,08,11.20
2014,04,13,02,09,11.20
2014,04,13,02,10,11.20
2014,04,13,02,11,11.10
2014,04,13,02,12,11.10
2014,04,13,02,13,11.10
2014,04,13,02,14,11.10
2014,04,13,02,15,11.10
2014,04,13,02,16,11.10
2014,04,13,02,17,11.00
2014,04,13,02,18,11.00
2014,04,13,02,19,11.00
2014,04,13,02,20,11.00
2014,04,13,02,21,10.90
2014,04,13,02,22,10.90
2014,04,13,02,23,10.90
2014,04,13,02,24,10.90
2014,04,13,02,25,10.90
2014,04,13,02,26,10.90
2014,04,13,02,27,10.80
2014,04,13,02,28,10.80
2014,04,13,02,29,10.80
2014,04,13,02,30,10.80
2014,04,13,02,31,10.80
2014,04,13,02,32,10.70
2014,04,13,02,33,10.70
2014,04,13,02,34,10.70
2014,04,13,02,35,10.60
2014,04,13,02,36,10.60
2014,04,13,02,37,10.60
2014,04,13,02,38,10.60
2014,04,13,02,39,10.50
2014,04,13,02,40,10.50
2014,04,13,02,41,10.40
2014,04,13,02,42,10.40
2014,04,13,02,43,10.30
2014,04,13,02,44,10.30
2014,04,13,02,45,10.30
2014,04,13,02,46,10.20
2014,04,13,02,47,10.20
2014,04,13,02,48,10.10
2014,04,13,02,49,10.10
2014,04,13,02,50,10.10
2014,04,13,02,51,10.10
2014,04,13,02,52,10.10
2014,04,13,02,53,10.10
2014,04,13,02,54,10.10
2014,04,13,02,55,10.10
2014,04,13,02,56,10.10
2014,04,13,02,57,10.10
2014,04,13,02,58,10.00
2014,04,13,02,59,10.00
2014,04,13,03,00,9.90
2014,04,13,03,01,9.90
2014,04,13,03,02,9.90
2014,04,13,03,03,9.90
2014,04,13,03,04,9.90
2014,04,13,03,05,9.90
2014,04,13,03,06,9.90
2014,04,13,03,07,9.90
2014,04,13,03,08,9.90
2014,04,13,03,09,9.80
2014,04,13,03,10,9.80
2014,04,13,03,11,9.80
2014,04,13,03,12,9.80
2014,04,13,03,13,9.80
2014,04,13,03,14,9.80
2014,04,13,03,15,9.80
2014,04,13,03,16,9.80
2014,04,13,03,17,9.80
2014,04,13,03,18,9.80
2014,04,13,03,19,9.80
2014,04,13,03,20,9.80
2014,04,13,03,21,9.80
2014,04,13,03,22,9.80
2014,04,13,03,23,9.70
2014,04,13,03,24,9.70
2014,04,13,03,25,9.70
2014,04,13,03,26,9.70
2014,04,13,03,27,9.60
2014,04,13,03,28,9.60
2014,04,13,03,29,9.70
2014,04,13,03,30,9.70
2014,04,13,03,31,9.70
2014,04,13,03,32,9.70
2014,04,13,03,33,9.70
2014,04,13,03,34,9.60
2014,04,13,03,35,9.60
2014,04,13,03,36,9.60
2014,04,13,03,37,9.60
2014,04,13,03,38,9.50
2014,04,13,03,39,9.50
2014,04,13,03,40,9.50
2014,04,13,03,41,9.50
2014,04,13,03,42,9.40
2014,04,13,03,43,9.40
2014,04,13,03,44,9.40
2014,04,13,03,45,9.30
2014,04,13,03,46,9.30
2014,04,13,03,47,9.30
2014,04,13,03,48,9.20
2014,04,13,03,49,9.20
2014,04,13,03,50,9.20
2014,04,13,03,51,9.20
2014,04,13,03,52,9.10
2014,04,13,03,53,9.10
2014,04,13,03,54,9.10
2014,04,13,03,55,9.10
2014,04,13,03,56,9.10
2014,04,13,03,57,9.00
2014,04,13,03,58,9.00
2014,04,13,03,59,9.00
2014,04,13,04,00,8.90
2014,04,13,04,01,8.90
2014,04,13,04,02,8.90
2014,04,13,04,03,8.80
2014,04,13,04,04,8.80
2014,04,13,04,05,8.80
2014,04,13,04,06,8.70
2014,04,13,04,07,8.70
2014,04,13,04,08,8.70
2014,04,13,04,09,8.60
2014,04,13,04,10,8.60
2014,04,13,04,11,8.60
2014,04,13,04,12,8.60
2014,04,13,04,13,8.60
2014,04,13,04,14,8.50
2014,04,13,04,15,8.50
2014,04,13,04,16,8.40
2014,04,13,04,17,8.40
2014,04,13,04,18,8.40
2014,04,13,04,19,8.30
2014,04,13,04,20,8.30
2014,04,13,04,21,8.30
2014,04,13,04,22,8.20
2014,04,13,04,23,8.20
2014,04,13,04,24,8.20
2014,04,13,04,25,8.20
2014,04,13,04,26,8.20
2014,04,13,04,27,8.20
2014,04,13,04,28,8.10
2014,04,13,04,29,8.10
2014,04,13,04,30,8.10
2014,04,13,04,31,8.10
2014,04,13,04,32,8.10
2014,04,13,04,33,8.10
2014,04,13,04,34,8.00
2014,04,13,04,35,8.00
2014,04,13,04,36,8.00
2014,04,13,04,37,8.00
2014,04,13,04,38,8.00
2014,04,13,04,39,8.00
2014,04,13,04,40,8.00
2014,04,13,04,41,8.00
2014,04,13,04,42,8.00
2014,04,13,04,43,8.00
2014,04,13,04,44,8.00
2014,04,13,04,45,8.00
2014,04,13,04,46,7.90
2014,04,13,04,47,7.90
2014,04,13,04,48,8.00
2014,04,13,04,49,7.90
2014,04,13,04,50,7.90
2014,04,13,04,51,7.90
2014,04,13,04,52,7.90
2014,04,13,04,53,7.90
2014,04,13,04,54,7.90
2014,04,13,04,55,7.90
2014,04,13,04,56,7.90
2014,04,13,04,57,8.00
2014,04,13,04,58,7.90
2014,04,13,04,59,7.90
2014,04,13,05,00,7.90
2014,04,13,05,01,7.90
2014,04,13,05,02,7.90
2014,04,13,05,03,7.90
2014,04,13,05,04,7.90
2014,04,13,05,05,7.90
2014,04,13,05,06,7.90
2014,04,13,05,07,7.90
2014,04,13,05,08,7.90
2014,04,13,05,09,7.90
2014,04,13,05,10,7.90
2014,04,13,05,11,7.80
2014,04,13,05,12,7.80
2014,04,13,05,13,7.80
2014,04,13,05,14,7.80
2014,04,13,05,15,7.80
2014,04,13,05,16,7.80
2014,04,13,05,17,7.80
2014,04,13,05,18,7.80
2014,04,13,05,19,7.80
2014,04,13,05,20,7.80
2014,04,13,05,21,7.80
2014,04,13,05,22,7.80
2014,04,13,05,23,7.80
2014,04,13,05,24,7.70
2014,04,13,05,25,7.70
2014,04,13,05,26,7.70
2014,04,13,05,27,7.70
2014,04,13,05,28,7.70
2014,04,13,05,29,7.70
2014,04,13,05,30,7.70
2014,04,13,05,31,7.70
2014,04,13,05,32,7.70
2014,04,13,05,33,7.70
2014,04,13,05,34,7.60
2014,04,13,05,35,7.60
2014,04,13,05,36,7.60
2014,04,13,05,37,7.60
2014,04,13,05,38,7.60
2014,04,13,05,39,7.50
2014,04,13,05,40,7.50
2014,04,13,05,41,7.50
2014,04,13,05,42,7.50
2014,04,13,05,43,7.50
2014,04,13,05,44,7.50
2014,04,13,05,45,7.60
2014,04,13,05,46,7.60
2014,04,13,05,47,7.60
2014,04,13,05,48,7.70
2014,04,13,05,49,7.70
2014,04,13,05,50,7.80
2014,04,13,05,51,7.80
2014,04,13,05,52,7.80
2014,04,13,05,53,7.80
2014,04,13,05,54,7.90
2014,04,13,05,55,7.90
2014,04,13,05,56,7.90
2014,04,13,05,57,7.90
2014,04,13,05,58,7.90
2014,04,13,05,59,7.90
2014,04,13,06,00,7.90
2014,04,13,06,01,7.90
2014,04,13,06,02,7.90
2014,04,13,06,03,7.90
2014,04,13,06,04,7.90
2014,04,13,06,05,7.90
2014,04,13,06,06,7.90
2014,04,13,06,07,8.00
2014,04,13,06,08,7.90
2014,04,13,06,09,7.90
2014,04,13,06,10,7.90
2014,04,13,06,11,7.90
2014,04,13,06,12,7.90
2014,04,13,06,13,7.90
2014,04,13,06,14,7.80
2014,04,13,06,15,7.80
2014,04,13,06,16,7.80
2014,04,13,06,17,7.80
2014,04,13,06,18,7.80
2014,04,13,06,19,7.70
2014,04,13,06,20,7.70
2014,04,13,06,21,7.80
2014,04,13,06,22,7.80
2014,04,13,06,23,7.90
2014,04,13,06,24,7.90
2014,04,13,06,25,7.90
2014,04,13,06,26,7.90
2014,04,13,06,27,7.90
2014,04,13,06,28,7.90
2014,04,13,06,29,7.90
2014,04,13,06,30,8.00
2014,04,13,06,31,8.00
2014,04,13,06,32,8.00
2014,04,13,06,33,8.00
2014,04,13,06,34,8.00
2014,04,13,06,35,8.00
2014,04,13,06,36,8.00
2014,04,13,06,37,8.00
2014,04,13,06,38,7.90
2014,04,13,06,39,7.90
2014,04,13,06,40,7.90
2014,04,13,06,41,7.90
2014,04,13,06,42,7.90
2014,04,13,06,43,7.90
2014,04,13,06,44,8.00
2014,04,13,06,45,8.00
2014,04,13,06,46,8.00
2014,04,13,06,47,8.00
2014,04,13,06,48,8.00
2014,04,13,06,49,8.00
2014,04,13,06,50,8.00
2014,04,13,06,51,7.90
2014,04,13,06,52,7.90
2014,04,13,06,53,7.90
2014,04,13,06,54,7.90
2014,04,13,06,55,7.90
2014,04,13,06,56,7.90
2014,04,13,06,57,7.90
2014,04,13,06,58,7.90
2014,04,13,06,59,7.90
2014,04,13,07,00,7.90
2014,04,13,07,01,7.80
2014,04,13,07,02,7.80
2014,04,13,07,03,7.80
2014,04,13,07,04,7.70
2014,04,13,07,05,7.70
2014,04,13,07,06,7.70
2014,04,13,07,07,7.60
2014,04,13,07,08,7.60
2014,04,13,07,09,7.60
2014,04,13,07,10,7.60
2014,04,13,07,11,7.60
2014,04,13,07,12,7.60
2014,04,13,07,13,7.50
2014,04,13,07,14,7.50
2014,04,13,07,15,7.50
2014,04,13,07,16,7.50
2014,04,13,07,17,7.50
2014,04,13,07,18,7.50
2014,04,13,07,19,7.50
2014,04,13,07,20,7.40
2014,04,13,07,21,7.40
2014,04,13,07,22,7.40
2014,04,13,07,23,7.40
2014,04,13,07,24,7.50
2014,04,13,07,25,7.50
2014,04,13,07,26,7.50
2014,04,13,07,27,7.50
2014,04,13,07,28,7.50
2014,04,13,07,29,7.50
2014,04,13,07,30,7.50
2014,04,13,07,31,7.50
2014,04,13,07,32,7.50
2014,04,13,07,33,7.50
2014,04,13,07,34,7.50
2014,04,13,07,35,7.50
2014,04,13,07,36,7.50
2014,04,13,07,37,7.50
2014,04,13,07,38,7.50
2014,04,13,07,39,7.60
2014,04,13,07,40,7.60
2014,04,13,07,41,7.60
2014,04,13,07,42,7.60
2014,04,13,07,43,7.60
2014,04,13,07,44,7.60
2014,04,13,07,45,7.60
2014,04,13,07,46,7.60
2014,04,13,07,47,7.60
2014,04,13,07,48,7.60
2014,04,13,07,49,7.70
2014,04,13,07,50,7.70
2014,04,13,07,51,7.70
2014,04,13,07,52,7.80
2014,04,13,07,53,7.80
2014,04,13,07,54,7.80
2014,04,13,07,55,7.80
2014,04,13,07,56,7.90
2014,04,13,07,57,7.90
2014,04,13,07,58,7.90
2014,04,13,07,59,7.90
2014,04,13,08,00,8.00
2014,04,13,08,01,8.00
2014,04,13,08,02,8.00
2014,04,13,08,03,8.10
2014,04,13,08,04,8.10
2014,04,13,08,05,8.10
2014,04,13,08,06,8.20
2014,04,13,08,07,8.30
2014,04,13,08,08,8.30
2014,04,13,08,09,8.30
2014,04,13,08,10,8.40
2014,04,13,08,11,8.40
2014,04,13,08,12,8.50
2014,04,13,08,13,8.50
2014,04,13,08,14,8.50
2014,04,13,08,15,8.60
2014,04,13,08,16,8.60
2014,04,13,08,17,8.60
2014,04,13,08,18,8.60
2014,04,13,08,19,8.60
2014,04,13,08,20,8.60
2014,04,13,08,21,8.70
2014,04,13,08,22,8.70
2014,04,13,08,23,8.70
2014,04,13,08,24,8.80
2014,04,13,08,25,8.80
2014,04,13,08,26,8.90
2014,04,13,08,27,8.90
2014,04,13,08,28,9.00
2014,04,13,08,29,9.00
2014,04,13,08,30,9.10
2014,04,13,08,31,9.20
2014,04,13,08,32,9.20
2014,04,13,08,33,9.30
2014,04,13,08,34,9.30
2014,04,13,08,35,9.40
2014,04,13,08,36,9.40
2014,04,13,08,37,9.50
2014,04,13,08,38,9.50
2014,04,13,08,39,9.60
2014,04,13,08,40,9.60
2014,04,13,08,41,9.70
2014,04,13,08,42,9.70
2014,04,13,08,43,9.80
2014,04,13,08,44,9.80
2014,04,13,08,45,9.80
2014,04,13,08,46,9.80
2014,04,13,08,47,9.90
2014,04,13,08,48,9.90
2014,04,13,08,49,10.00
2014,04,13,08,50,10.00
2014,04,13,08,51,10.10
2014,04,13,08,52,10.10
2014,04,13,08,53,10.20
2014,04,13,08,54,10.20
2014,04,13,08,55,10.30
2014,04,13,08,56,10.30
2014,04,13,08,57,10.30
2014,04,13,08,58,10.40
2014,04,13,08,59,10.40
2014,04,13,09,00,10.50
2014,04,13,09,01,10.50
2014,04,13,09,02,10.60
2014,04,13,09,03,10.60
2014,04,13,09,04,10.60
2014,04,13,09,05,10.60
2014,04,13,09,06,10.60
2014,04,13,09,07,10.60
2014,04,13,09,08,10.70
2014,04,13,09,09,10.70
2014,04,13,09,10,10.70
2014,04,13,09,11,10.80
2014,04,13,09,12,10.80
2014,04,13,09,13,10.80
2014,04,13,09,14,10.90
2014,04,13,09,15,10.90
2014,04,13,09,16,10.90
2014,04,13,09,17,11.00
2014,04,13,09,18,11.00
2014,04,13,09,19,11.10
2014,04,13,09,20,11.10
2014,04,13,09,21,11.10
2014,04,13,09,22,11.10
2014,04,13,09,23,11.10
2014,04,13,09,24,11.10
2014,04,13,09,25,11.20
2014,04,13,09,26,11.20
2014,04,13,09,27,11.20
2014,04,13,09,28,11.20
2014,04,13,09,29,11.30
2014,04,13,09,30,11.30
2014,04,13,09,31,11.40
2014,04,13,09,32,11.40
2014,04,13,09,33,11.40
2014,04,13,09,34,11.50
2014,04,13,09,35,11.50
2014,04,13,09,36,11.60
2014,04,13,09,37,11.60
2014,04,13,09,38,11.60
2014,04,13,09,39,11.70
2014,04,13,09,40,11.70
2014,04,13,09,41,11.70
2014,04,13,09,42,11.70
2014,04,13,09,43,11.70
2014,04,13,09,44,11.70
2014,04,13,09,45,11.80
2014,04,13,09,46,11.80
2014,04,13,09,47,11.80
2014,04,13,09,48,11.80
2014,04,13,09,49,11.80
2014,04,13,09,50,11.80
2014,04,13,09,51,11.80
2014,04,13,09,52,11.90
2014,04,13,09,53,11.90
2014,04,13,09,54,11.90
2014,04,13,09,55,11.90
2014,04,13,09,56,12.00
2014,04,13,09,57,12.00
2014,04,13,09,58,12.10
2014,04,13,09,59,12.10
2014,04,13,10,00,12.10
2014,04,13,10,01,12.10
2014,04,13,10,02,12.20
2014,04,13,10,03,12.20
2014,04,13,10,04,12.20
2014,04,13,10,05,12.20
2014,04,13,10,06,12.20
2014,04,13,10,07,12.20
2014,04,13,10,08,12.20
2014,04,13,10,09,12.20
2014,04,13,10,10,12.20
2014,04,13,10,11,12.20
2014,04,13,10,12,12.20
2014,04,13,10,13,12.20
2014,04,13,10,14,12.20
2014,04,13,10,15,12.20
2014,04,13,10,16,12.30
2014,04,13,10,17,12.30
2014,04,13,10,18,12.40
2014,04,13,10,19,12.40
2014,04,13,10,20,12.40
2014,04,13,10,21,12.50
2014,04,13,10,22,12.60
2014,04,13,10,23,12.60
2014,04,13,10,24,12.60
2014,04,13,10,25,12.70
2014,04,13,10,26,12.70
2014,04,13,10,27,12.80
2014,04,13,10,28,12.80
2014,04,13,10,29,12.80
2014,04,13,10,30,12.80
2014,04,13,10,31,12.80
2014,04,13,10,32,12.80
2014,04,13,10,33,12.90
2014,04,13,10,34,12.90
2014,04,13,10,35,12.90
2014,04,13,10,36,12.90
2014,04,13,10,37,12.90
2014,04,13,10,38,12.90
2014,04,13,10,39,13.00
2014,04,13,10,40,13.00
2014,04,13,10,41,13.00
2014,04,13,10,42,13.00
2014,04,13,10,43,13.00
2014,04,13,10,44,13.00
2014,04,13,10,45,13.00
2014,04,13,10,46,13.00
2014,04,13,10,47,13.10
2014,04,13,10,48,13.00
2014,04,13,10,49,13.00
2014,04,13,10,50,13.00
2014,04,13,10,51,13.00
2014,04,13,10,52,12.90
2014,04,13,10,53,12.90
2014,04,13,10,54,12.90
2014,04,13,10,55,13.00
2014,04,13,10,56,13.00
2014,04,13,10,57,13.10
2014,04,13,10,58,13.20
2014,04,13,10,59,13.20
2014,04,13,11,00,13.20
2014,04,13,11,01,13.20
2014,04,13,11,02,13.30
2014,04,13,11,03,13.30
2014,04,13,11,04,13.40
2014,04,13,11,05,13.40
2014,04,13,11,06,13.50
2014,04,13,11,07,13.60
2014,04,13,11,08,13.60
2014,04,13,11,09,13.70
2014,04,13,11,10,13.70
2014,04,13,11,11,13.80
2014,04,13,11,12,13.90
2014,04,13,11,13,13.90
2014,04,13,11,14,13.90
2014,04,13,11,15,14.00
2014,04,13,11,16,14.00
2014,04,13,11,17,14.00
2014,04,13,11,18,14.10
2014,04,13,11,19,14.00
2014,04,13,11,20,14.00
2014,04,13,11,21,14.00
2014,04,13,11,22,13.90
2014,04,13,11,23,14.00
2014,04,13,11,24,14.00
2014,04,13,11,25,14.00
2014,04,13,11,26,14.00
2014,04,13,11,27,14.00
2014,04,13,11,28,14.10
2014,04,13,11,29,14.10
2014,04,13,11,30,14.20
2014,04,13,11,31,14.20
2014,04,13,11,32,14.20
2014,04,13,11,33,14.30
2014,04,13,11,34,14.30
2014,04,13,11,35,14.30
2014,04,13,11,36,14.30
2014,04,13,11,37,14.30
2014,04,13,11,38,14.30
2014,04,13,11,39,14.20
2014,04,13,11,40,14.20
2014,04,13,11,41,14.20
2014,04,13,11,42,14.30
2014,04,13,11,43,14.30
2014,04,13,11,44,14.30
2014,04,13,11,45,14.30
2014,04,13,11,46,14.30
2014,04,13,11,47,14.30
2014,04,13,11,48,14.30
2014,04,13,11,49,14.30
2014,04,13,11,50,14.30
2014,04,13,11,51,14.30
2014,04,13,11,52,14.30
2014,04,13,11,53,14.40
2014,04,13,11,54,14.40
2014,04,13,11,55,14.50
2014,04,13,11,56,14.60
2014,04,13,11,57,14.60
2014,04,13,11,58,14.70
2014,04,13,11,59,14.70
2014,04,13,12,00,14.70
2014,04,13,12,01,14.70
2014,04,13,12,02,14.70
2014,04,13,12,03,14.70
2014,04,13,12,04,14.80
2014,04,13,12,05,14.80
2014,04,13,12,06,14.80
2014,04,13,12,07,14.80
2014,04,13,12,08,14.80
2014,04,13,12,09,14.90
2014,04,13,12,10,14.90
2014,04,13,12,11,14.90
2014,04,13,12,12,14.80
2014,04,13,12,13,14.70
2014,04,13,12,14,14.60
2014,04,13,12,15,14.60
2014,04,13,12,16,14.50
2014,04,13,12,17,14.60
2014,04,13,12,18,14.60
2014,04,13,12,19,14.60
2014,04,13,12,20,14.60
2014,04,13,12,21,14.60
2014,04,13,12,22,14.60
2014,04,13,12,23,14.50
2014,04,13,12,24,14.50
2014,04,13,12,25,14.60
2014,04,13,12,26,14.50
2014,04,13,12,27,14.50
2014,04,13,12,28,14.50
2014,04,13,12,29,14.50
2014,04,13,12,30,14.60
2014,04,13,12,31,14.60
2014,04,13,12,32,14.60
2014,04,13,12,33,14.60
2014,04,13,12,34,14.60
2014,04,13,12,35,14.70
2014,04,13,12,36,14.80
2014,04,13,12,37,14.80
2014,04,13,12,38,14.80
2014,04,13,12,39,14.80
2014,04,13,12,40,14.80
2014,04,13,12,41,14.80
2014,04,13,12,42,14.80
2014,04,13,12,43,14.80
2014,04,13,12,44,14.90
2014,04,13,12,45,14.90
2014,04,13,12,46,14.90
2014,04,13,12,47,14.90
2014,04,13,12,48,14.90
2014,04,13,12,49,14.80
2014,04,13,12,50,14.80
2014,04,13,12,51,14.80
2014,04,13,12,52,14.90
2014,04,13,12,53,14.90
2014,04,13,12,54,14.90
2014,04,13,12,55,14.90
2014,04,13,12,56,15.00
2014,04,13,12,57,15.10
2014,04,13,12,58,15.10
2014,04,13,12,59,15.10
2014,04,13,13,00,15.10
2014,04,13,13,01,15.10
2014,04,13,13,02,15.20
2014,04,13,13,03,15.20
2014,04,13,13,04,15.20
2014,04,13,13,05,15.20
2014,04,13,13,06,15.20
2014,04,13,13,07,15.30
2014,04,13,13,08,15.30
2014,04,13,13,09,15.30
2014,04,13,13,10,15.30
2014,04,13,13,11,15.30
2014,04,13,13,12,15.30
2014,04,13,13,13,15.30
2014,04,13,13,14,15.30
2014,04,13,13,15,15.30
2014,04,13,13,16,15.30
2014,04,13,13,17,15.40
2014,04,13,13,18,15.40
2014,04,13,13,19,15.40
2014,04,13,13,20,15.40
2014,04,13,13,21,15.50
2014,04,13,13,22,15.50
2014,04,13,13,23,15.60
2014,04,13,13,24,15.60
2014,04,13,13,25,15.60
2014,04,13,13,26,15.70
2014,04,13,13,27,15.80
2014,04,13,13,28,15.70
2014,04,13,13,29,15.80
2014,04,13,13,30,15.80
2014,04,13,13,31,15.80
2014,04,13,13,32,15.90
2014,04,13,13,33,15.90
2014,04,13,13,34,15.90
2014,04,13,13,35,16.00
2014,04,13,13,36,16.00
2014,04,13,13,37,16.00
2014,04,13,13,38,16.00
2014,04,13,13,39,16.00
2014,04,13,13,40,16.10
2014,04,13,13,41,16.10
2014,04,13,13,42,16.10
2014,04,13,13,43,16.20
2014,04,13,13,44,16.20
2014,04,13,13,45,16.20
2014,04,13,13,46,16.20
2014,04,13,13,47,16.20
2014,04,13,13,48,16.30
2014,04,13,13,49,16.30
2014,04,13,13,50,16.30
2014,04,13,13,51,16.30
2014,04,13,13,52,16.30
2014,04,13,13,53,16.30
2014,04,13,13,54,16.30
2014,04,13,13,55,16.30
2014,04,13,13,56,16.30
2014,04,13,13,57,16.30
2014,04,13,13,58,16.20
2014,04,13,13,59,16.20
2014,04,13,14,00,16.20
2014,04,13,14,01,16.20
2014,04,13,14,02,16.10
2014,04,13,14,03,16.10
2014,04,13,14,04,16.00
2014,04,13,14,05,16.00
2014,04,13,14,06,15.90
2014,04,13,14,07,15.90
2014,04,13,14,08,15.90
2014,04,13,14,09,15.90
2014,04,13,14,10,15.90
2014,04,13,14,11,16.00
2014,04,13,14,12,16.00
2014,04,13,14,13,16.00
2014,04,13,14,14,16.10
2014,04,13,14,15,16.10
2014,04,13,14,16,16.00
2014,04,13,14,17,15.90
2014,04,13,14,18,15.80
2014,04,13,14,19,15.70
2014,04,13,14,20,15.70
2014,04,13,14,21,15.60
2014,04,13,14,22,15.60
2014,04,13,14,23,15.70
2014,04,13,14,24,15.80
2014,04,13,14,25,15.90
2014,04,13,14,26,16.00
2014,04,13,14,27,16.10
2014,04,13,14,28,16.20
2014,04,13,14,29,16.30
2014,04,13,14,30,16.30
2014,04,13,14,31,16.30
2014,04,13,14,32,16.40
2014,04,13,14,33,16.40
2014,04,13,14,34,16.40
2014,04,13,14,35,16.40
2014,04,13,14,36,16.40
2014,04,13,14,37,16.50
2014,04,13,14,38,16.50
2014,04,13,14,39,16.60
2014,04,13,14,40,16.60
2014,04,13,14,41,16.60
2014,04,13,14,42,16.60
2014,04,13,14,43,16.60
2014,04,13,14,44,16.70
2014,04,13,14,45,16.70
2014,04,13,14,46,16.60
2014,04,13,14,47,16.60
2014,04,13,14,48,16.60
2014,04,13,14,49,16.60
2014,04,13,14,50,16.60
2014,04,13,14,51,16.60
2014,04,13,14,52,16.60
2014,04,13,14,53,16.60
2014,04,13,14,54,16.60
2014,04,13,14,55,16.60
2014,04,13,14,56,16.60
2014,04,13,14,57,16.70
2014,04,13,14,58,16.70
2014,04,13,14,59,16.70
2014,04,13,15,00,16.80
2014,04,13,15,01,16.80
2014,04,13,15,02,16.80
2014,04,13,15,03,16.80
2014,04,13,15,04,16.90
2014,04,13,15,05,16.90
2014,04,13,15,06,16.90
2014,04,13,15,07,16.90
2014,04,13,15,08,17.00
2014,04,13,15,09,17.00
2014,04,13,15,10,17.00
2014,04,13,15,11,17.00
2014,04,13,15,12,17.00
2014,04,13,15,13,16.90
2014,04,13,15,14,16.90
2014,04,13,15,15,16.90
2014,04,13,15,16,16.90
2014,04,13,15,17,16.90
2014,04,13,15,18,17.00
2014,04,13,15,19,17.00
2014,04,13,15,20,17.00
2014,04,13,15,21,17.00
2014,04,13,15,22,17.10
2014,04,13,15,23,17.10
2014,04,13,15,24,17.10
2014,04,13,15,25,17.10
2014,04,13,15,26,17.10
2014,04,13,15,27,17.10
2014,04,13,15,28,17.20
2014,04,13,15,29,17.20
2014,04,13,15,30,17.20
2014,04,13,15,31,17.20
2014,04,13,15,32,17.20
2014,04,13,15,33,17.20
2014,04,13,15,34,17.20
2014,04,13,15,35,17.20
2014,04,13,15,36,17.20
2014,04,13,15,37,17.10
2014,04,13,15,38,17.10
2014,04,13,15,39,17.10
2014,04,13,15,40,17.10
2014,04,13,15,41,17.10
2014,04,13,15,42,17.20
2014,04,13,15,43,17.20
2014,04,13,15,44,17.30
2014,04,13,15,45,17.30
2014,04,13,15,46,17.30
2014,04,13,15,47,17.30
2014,04,13,15,48,17.30
2014,04,13,15,49,17.40
2014,04,13,15,50,17.40
2014,04,13,15,51,17.40
2014,04,13,15,52,17.40
2014,04,13,15,53,17.40
2014,04,13,15,54,17.30
2014,04,13,15,55,17.30
2014,04,13,15,56,17.20
2014,04,13,15,57,17.20
2014,04,13,15,58,17.10
2014,04,13,15,59,17.10
2014,04,13,16,00,17.10
2014,04,13,16,01,17.10
2014,04,13,16,02,17.00
2014,04,13,16,03,17.00
2014,04,13,16,04,16.90
2014,04,13,16,05,16.90
2014,04,13,16,06,16.80
2014,04,13,16,07,16.80
2014,04,13,16,08,16.70
2014,04,13,16,09,16.70
2014,04,13,16,10,16.70
2014,04,13,16,11,16.70
2014,04,13,16,12,16.70
2014,04,13,16,13,16.80
2014,04,13,16,14,16.90
2014,04,13,16,15,16.90
2014,04,13,16,16,17.00
2014,04,13,16,17,17.00
2014,04,13,16,18,17.00
2014,04,13,16,19,17.10
2014,04,13,16,20,17.10
2014,04,13,16,21,17.10
2014,04,13,16,22,17.10
2014,04,13,16,23,17.20
2014,04,13,16,24,17.20
2014,04,13,16,25,17.20
2014,04,13,16,26,17.20
2014,04,13,16,27,17.20
2014,04,13,16,28,17.20
2014,04,13,16,29,17.30
2014,04,13,16,30,17.30
2014,04,13,16,31,17.30
2014,04,13,16,32,17.40
2014,04,13,16,33,17.40
2014,04,13,16,34,17.50
2014,04,13,16,35,17.50
2014,04,13,16,36,17.40
2014,04,13,16,37,17.40
2014,04,13,16,38,17.40
2014,04,13,16,39,17.40
2014,04,13,16,40,17.40
2014,04,13,16,41,17.50
2014,04,13,16,42,17.40
2014,04,13,16,43,17.40
2014,04,13,16,44,17.50
2014,04,13,16,45,17.50
2014,04,13,16,46,17.60
2014,04,13,16,47,17.60
2014,04,13,16,48,17.60
2014,04,13,16,49,17.60
2014,04,13,16,50,17.60
2014,04,13,16,51,17.70
2014,04,13,16,52,17.70
2014,04,13,16,53,17.70
2014,04,13,16,54,17.70
2014,04,13,16,55,17.70
2014,04,13,16,56,17.60
2014,04,13,16,57,17.60
2014,04,13,16,58,17.50
2014,04,13,16,59,17.50
2014,04,13,17,00,17.50
2014,04,13,17,01,17.40
2014,04,13,17,02,17.40
2014,04,13,17,03,17.40
2014,04,13,17,04,17.30
2014,04,13,17,05,17.20
2014,04,13,17,06,17.10
2014,04,13,17,07,17.10
2014,04,13,17,08,17.10
2014,04,13,17,09,17.00
2014,04,13,17,10,16.90
2014,04,13,17,11,16.90
2014,04,13,17,12,16.90
2014,04,13,17,13,16.90
2014,04,13,17,14,16.90
2014,04,13,17,15,16.90
2014,04,13,17,16,16.90
2014,04,13,17,17,16.90
2014,04,13,17,18,17.00
2014,04,13,17,19,17.00
2014,04,13,17,20,17.00
2014,04,13,17,21,17.10
2014,04,13,17,22,17.10
2014,04,13,17,23,17.10
2014,04,13,17,24,17.10
2014,04,13,17,25,17.10
2014,04,13,17,26,17.10
2014,04,13,17,27,17.10
2014,04,13,17,28,17.10
2014,04,13,17,29,17.10
2014,04,13,17,30,17.10
2014,04,13,17,31,17.10
2014,04,13,17,32,17.10
2014,04,13,17,33,17.10
2014,04,13,17,34,17.10